TimeEDT,TemperatureF,Dew PointF,Humidity,Sea Level PressureIn,VisibilityMPH,Wind Direction,Wind SpeedMPH,Gust SpeedMPH,PrecipitationIn,Events,Conditions,WindDirDegrees,DateUTC
12:53 AM,75.9,71.1,85,30.00,10.0,WNW,3.5,-,N/A,,Partly Cloudy,300,2013-09-15 04:53:00
1:53 AM,75.0,70.0,84,29.99,10.0,Calm,Calm,-,N/A,,Clear,0,2013-09-15 05:53:00
2:53 AM,75.0,68.0,79,29.99,10.0,Calm,Calm,-,N/A,,Clear,0,2013-09-15 06:53:00
3:53 AM,75.0,66.9,76,29.99,10.0,NW,3.5,-,N/A,,Clear,320,2013-09-15 07:53:00
4:53 AM,73.9,66.0,76,29.99,10.0,Calm,Calm,-,N/A,,Clear,0,2013-09-15 08:53:00
5:53 AM,71.1,66.0,84,30.00,10.0,Calm,Calm,-,N/A,,Clear,0,2013-09-15 09:53:00
6:53 AM,72.0,66.9,84,30.01,10.0,Calm,Calm,-,N/A,,Clear,0,2013-09-15 10:53:00
7:53 AM,73.9,69.1,85,30.03,8.0,East,3.5,-,N/A,,Clear,100,2013-09-15 11:53:00
8:53 AM,78.1,71.1,79,30.04,9.0,ENE,4.6,-,N/A,,Clear,60,2013-09-15 12:53:00
9:53 AM,82.0,72.0,71,30.06,10.0,ESE,3.5,-,N/A,,Clear,120,2013-09-15 13:53:00
10:53 AM,86.0,71.1,61,30.07,10.0,SE,5.8,-,N/A,,Clear,130,2013-09-15 14:53:00
11:53 AM,90.0,70.0,52,30.06,10.0,SSE,3.5,-,N/A,,Partly Cloudy,150,2013-09-15 15:53:00
12:53 PM,91.9,70.0,48,30.05,10.0,NNE,6.9,-,N/A,,Scattered Clouds,30,2013-09-15 16:53:00
1:53 PM,93.0,69.1,45,30.04,10.0,SSE,6.9,-,N/A,,Mostly Cloudy,160,2013-09-15 17:53:00
2:53 PM,93.9,69.1,44,30.02,10.0,NNE,6.9,-,N/A,,Mostly Cloudy,20,2013-09-15 18:53:00
3:53 PM,96.1,66.9,38,30.01,10.0,East,8.1,-,N/A,,Mostly Cloudy,100,2013-09-15 19:53:00
4:53 PM,93.9,66.9,41,29.99,10.0,East,10.4,-,N/A,,Mostly Cloudy,90,2013-09-15 20:53:00
5:53 PM,91.0,70.0,50,30.00,7.0,Calm,Calm,-,0.00,Rain,Light Rain,0,2013-09-15 21:53:00
6:18 PM,82.4,75.2,79,30.01,5.0,SSW,9.2,-,0.03,Rain-Thunderstorm,Heavy Thunderstorms and Rain,200,2013-09-15 22:18:00
6:42 PM,80.6,69.8,70,30.04,0.8,South,12.7,23.0,0.08,Rain-Thunderstorm,Heavy Thunderstorms and Rain,180,2013-09-15 22:42:00
6:53 PM,79.0,70.0,74,30.04,0.8,South,11.5,38.0,0.32,Rain-Thunderstorm,Heavy Thunderstorms and Rain,170,2013-09-15 22:53:00
6:56 PM,78.8,69.8,74,30.04,2.0,South,8.1,-,0.02,Rain-Thunderstorm,Heavy Thunderstorms and Rain,170,2013-09-15 22:56:00
7:10 PM,77.0,71.6,83,30.05,3.0,South,10.4,-,0.09,Rain-Thunderstorm,Heavy Thunderstorms and Rain,170,2013-09-15 23:10:00
7:32 PM,78.8,69.8,74,30.05,1.8,SSE,11.5,27.6,0.21,Rain-Thunderstorm,Heavy Thunderstorms and Rain,150,2013-09-15 23:32:00
7:36 PM,78.8,69.8,74,30.05,3.0,SE,13.8,26.5,0.23,Rain-Thunderstorm,Thunderstorms and Rain,140,2013-09-15 23:36:00
7:53 PM,77.0,71.1,82,30.04,10.0,SSE,9.2,-,0.25,Rain-Thunderstorm,Light Thunderstorms and Rain,160,2013-09-15 23:53:00
8:48 PM,75.2,71.6,89,30.05,10.0,Variable,3.5,-,0.00,,Scattered Clouds,0,2013-09-16 00:48:00
8:53 PM,75.9,72.0,87,30.05,10.0,East,4.6,-,0.00,,Scattered Clouds,100,2013-09-16 00:53:00
9:08 PM,77.0,71.6,83,30.05,10.0,Calm,Calm,-,N/A,Thunderstorm,Thunderstorm,0,2013-09-16 01:08:00
9:39 PM,78.8,71.6,78,30.08,10.0,Variable,4.6,-,N/A,,Scattered Clouds,0,2013-09-16 01:39:00
9:53 PM,77.0,72.0,84,30.09,10.0,SW,8.1,-,N/A,,Scattered Clouds,220,2013-09-16 01:53:00
10:53 PM,77.0,72.0,84,30.08,10.0,East,8.1,-,N/A,,Scattered Clouds,100,2013-09-16 02:53:00
11:53 PM,75.9,72.0,87,30.09,10.0,East,4.6,-,N/A,,Mostly Cloudy,100,2013-09-16 03:53:00